Tracking 20242 objects as of 24-Jan-2020
HD Live streaming from Space Station
objects crossing your sky now

COSMOS 2251 DEB

Track COSMOS 2251 DEB now!
10-day predictions


NORAD ID: 38216
Int'l Code: 1993-036BTG
Perigee: 576.2 km
Apogee: 588.7 km
Inclination: 74.0 °
Period: 96.2 minutes
Semi major axis: 6953 km
RCS: 0.0118 m2 (small)
Launch date: June 16, 1993
Source: Commonwealth of Independent States (former USSR) (CIS)
Launch site: PLESETSK MISSILE AND SPACE COMPLEX (PKMTR)

Note: This is SATELLITE DEBRIS
aabbcc
Your satellite tracking list
Your tracking list is empty




NASA's NSSDC Master Catalog

Two Line Element Set (TLE):
1 38216U 93036BTG 20024.13714905  .00006022  00000-0  52197-3 0  9996
2 38216  74.0158 308.8835 0009014 158.4256 201.7311 14.97286667483698
Source of the keplerian elements: AFSPC